Home > Weather > Jackson > Past weeks

Flag for USA Past Weather in Jackson, Mississippi, USA — Yesterday and Last 2 Weeks

Now
82 °F

Sunny.


Feels Like: 86 °F
Forecast: 75 / 93 °F
Wind: No wind

Location: Hawkins Field

Current Time: Aug 29, 2016 at 8:31:23 PM

Latest Report: Aug 29, 2016 at 7:53 PM


Visibility: 10 mi

Pressure: 29.96 "Hg

Humidity: 70%

Dew Point: 71 °F

Location of JacksonLocation

Past Weather in Jackson — Graph

°F

Jackson Temperature Yesterday

Maximum temperature yesterday: 91 °F (at 12:53 PM)
Minimum temperature yesterday: 74 °F (at 6:53 AM)
Average temperature yesterday: 83 °F

High & Low Weather Summary for the Past Weeks

 TemperatureHumidityPressure
High95 °F (Aug 29, 2:53 PM)97% (Aug 16, 3:53 AM)30.21 "Hg (Aug 16, 3:53 AM)
Low73 °F (Aug 17, 4:53 AM)42% (Aug 27, 11:53 AM)29.85 "Hg (Aug 20, 5:53 PM)
Average81 °F78%30.04 "Hg
* Reported Aug 15 8:53 AM — Aug 29 6:53 PM, Jackson, Weather by CustomWeather, © 2016

Note: Actual official high and low records may vary slightly from our data, if they occured in-between our weather recording intervals... More about our weather records

Advertising

Jackson Weather History for the Previous 24 Hours

Scroll right to see more
 ConditionsComfort  
Time TempWeatherWind HumidityBarometerVisibility
6:53 PM
Mon, Aug 29
86 °FScattered clouds.5 mph57%29.94 "Hg10 mi
5:53 PM88 °FScattered clouds.5 mph57%29.95 "Hg10 mi
4:53 PM93 °FSunny.8 mph46%29.94 "Hg10 mi
3:53 PM93 °FPassing clouds.7 mph49%29.95 "Hg10 mi
2:53 PM95 °FScattered clouds.5 mph46%29.97 "Hg10 mi
1:53 PM92 °FSunny.5 mph52%30.01 "Hg10 mi
12:53 PM93 °FPartly sunny.6 mph50%30.01 "Hg10 mi
11:53 AM93 °FScattered clouds.9 mph49%30.02 "Hg10 mi
10:53 AM90 °FSunny.6 mph57%30.03 "Hg10 mi
9:53 AM87 °FSunny.6 mph61%30.04 "Hg10 mi
8:53 AM83 °FSunny.6 mph70%30.03 "Hg10 mi
7:53 AM79 °FSunny.No wind77%30.03 "Hg10 mi
6:53 AM75 °FClear.No wind88%30.01 "Hg10 mi
5:53 AM74 °FClear.No wind88%29.99 "Hg10 mi
4:53 AM76 °FPassing clouds.No wind82%29.99 "Hg10 mi
3:53 AM77 °FClear.3 mph79%29.99 "Hg10 mi
2:53 AM78 °FClear.No wind76%29.98 "Hg10 mi
1:53 AM77 °FClear.3 mph79%29.98 "Hg10 mi
12:53 AM79 °FClear.No wind77%29.99 "Hg10 mi
11:53 PM
Sun, Aug 28
80 °FClear.No wind71%30.00 "Hg10 mi
10:53 PM81 °FClear.No wind69%30.00 "Hg10 mi
9:53 PM82 °FClear.3 mph67%30.00 "Hg10 mi
8:53 PM82 °FThundershowers. Clear.3 mph67%29.99 "Hg10 mi
Weather by CustomWeather, © 2016

See weather overviewHow to use our weather pages